Погода в Николаевке

Россия / Приморский край     43°05′21″N   133°12′33″E
темп.,
°C
ветер,
м/с
пор.,
м/с
влажн.,
%
обл.,
%
осадки,
мм/ч
давл.,
гПа
погр.,
м
15 апреля, чт
чт1501:00−1сз00802 0.0 101510
04:00−1ссз11813 0.0 101510
07:00−1ссв11685 0.0 101619
10:00+7зюз26325 0.0 1016516
13:00+9юз583135 0.0 10161254
16:00+10юз483092 0.0 10151101
19:00+7ю2248100 0.0 101632
22:00+5ююв1159100 0.0 101816
16 апреля, пт
пт1601:00+3юв217296 0.0 101816
04:00+4юв2286100 0.0 101756
07:00+4юв3994100 0.0 1016573
10:00+7юв51173100 0.0 1015988
13:00+8ююв71273100 0.1 10131146
16:00+7ююв51290100 0.8 1010793
19:00+5ююв31095100 2.2 1009946
22:00+5юв249727 4.8 1009190
17 апреля, сб
сб1701:00+3ююв239823 0.8 100856
04:00+2ююв119893 0.9 100819
07:00+2юв11920 0.0 100913
10:00+7юз246899 0.0 1010707
13:00+11ю2347100 0.0 10081161
16:00+10ю4550100 0.0 10081106
19:00+7ю2266100 0.0 1008463
22:00+5всв2471100 0.1 1009147
18 апреля, вс
вс1801:00+5ссз117299 0.0 100730
04:00+4сз1181100 0.4 100643
07:00+3сз3782100 0.0 1005283
10:00+4сз41390100 0.3 10041007
13:00+9ссз71462100 0.1 10031365
16:00+9ссз71565100 0.2 10041412
19:00+10ссз716526 0.0 10041723
22:00+8ссз614541 0.0 1006987
19 апреля, пн
пн1901:00+5сз38681 0.0 1008201
04:00+3ссз23790 0.0 100952
07:00+3ссз22820 0.0 101041
10:00+11сз38510 0.0 1010697
13:00+16сз69300 0.0 10082065
16:00+17сз58294 0.0 10082293
19:00+14зсз25444 0.0 1010182
22:00+9сз11560 0.0 101311